GSAT0218 (GALILEO 22) (43058 NORAD) Tracking and Keplerian Element Data

This shows tracking and keplerian element data for the satellite.

Feedback or suggestion? Click here.




ElementValue
Catalog43058
NameGSAT0218 (GALILEO 22)
Epoch Orbit372
Epoch Day198.88605845
Epoch Year2018
RAAN300.9675
Inclination56.8255
Eccentricity0.000495
Argument of Perigee230.2809
Mean Anonmoly129.711
Mean Motion1.70474339
Decay Rate-6.3E-07
L11 43058U 17079D 18198.88605845 -.00000063 00000-0 00000-0 0 9995
L22 43058 56.8255 300.9675 0004950 230.2809 129.7110 1.70474339 3726

Live tracking and technical data element details for GSAT0218 (GALILEO 22) (NORAD 43058). GSAT0218 (GALILEO 22) can be tracked NOW for your location showing map with azimuth and elevation plus other details from your city location.

Track the satellite on the map from your city or location and see movement details for azimuth, elevation, latitude, longitude, range, height, and movement on the map or in text.







IsCatalogInMostPopularTable: catalog: 43058, numindb: 116
Update: records affected: 1



GetName: 43058 GSAT0218 (GALILEO 22)

Hit Count: updated at: Thu, 19 Jul 2018 21:25:30 GMT